sat.trackr.live / text

‹ back to catalog

STARLINK-2017

NORAD 47351 · 2021-005C

PAYLOAD ACTIVE UNKNOWN

§ Identity

Operator
Country
US
Launch date
2021-01-20
Launch site
AFETR
Launch vehicle
Mass (kg)
RCS (m²)

Purposes: comms

External: N2YO · Heavens-Above · Gunter

§ Orbital elements

Epoch: 2026-05-25T03:25:28.256160Z

Period
94.01 min
Inclination
53.1596°
Eccentricity
0.0001095
Mean motion
15.31700659 rev/d
Perigee alt
470.0 km
Apogee alt
471.5 km
Semi-major
6,848.9 km
B*
5.9504e-6
RAAN
18.0771°
Arg perigee
88.9369°
Mean anomaly
271.1758°
Rev number
29,543

§ Raw data

STARLINK-20171 47351U 21005C   26145.14268815 -.00000180  00000+0  59504-5 0  99982 47351  53.1596  18.0771 0001095  88.9369 271.1758 15.31700659295434

JSON: /api/v1/satellites/47351 · /tle

For live sub-satellite position, see the globe view (requires WebGL).

§ Visibility from observer

Set your observer location to see the next 7 days of passes ≥ 10°. The values pass through the URL so the page stays shareable.

No JS? Fill the form by hand. The geolocation button needs JavaScript.